Preview of NWS' New Version of Forecast
This preview is not operational and should not be used for support decisions.

Regional Weather Roundup (RWR)

Issued by National Weather Service (NWS)

                            
000
ASUS44 KMEG 190010
RWRTN 
TENNESSEE HOURLY STATE WEATHER ROUNDUP
NATIONAL WEATHER SERVICE MEMPHIS TN
700 PM CDT THU APR 18 2019

TNZ002-004-019-021-049-052-054-088>092-190100-
WEST TENNESSEE
  
CITY           SKY/WX    TMP DP  RH WIND       PRES   REMARKS
MEMPHIS INTL   CLOUDY    61  59  93 VRB6      29.56R                  
NWS MEMPHIS      N/A     60 N/A N/A MISG        N/A                   
JACKSON        RAIN      61  60  97 S7        29.67F FOG              
DYERSBURG      LGT RAIN  61  60  97 SE14G20   29.58F                  
SOMERVILLE     CLOUDY    61  59  94 VRB6G14   29.56F FOG              
COVINGTON      MOCLDY    61  59  94 SE14G24   29.56F                  
UNION CITY     MOCLDY    63  63 100 SE5       29.62F FOG              
BOLIVAR        CLOUDY    61  59  94 E7        29.65F                  
PARIS          MOCLDY    61  61 100 CALM      29.66F                  
HUNTINGDON     MOCLDY    63  61  94 SW5       29.66F                  
LEXINGTON      CLOUDY    61  59  94 S6        29.69S FOG              
SELMER         CLOUDY    59  57  94 VRB5      29.71R                  
SAVANNAH       CLOUDY    61  59  94 W5        29.71R FOG              
$$

TNZ008-025-027-028-033-062-065-066-190100-
NORTH MIDDLE TENNESSEE
  
CITY           SKY/WX    TMP DP  RH WIND       PRES   REMARKS
NASHVILLE      CLOUDY    75  54  47 S18G28    29.63F                  
DICKSON        CLOUDY    61  59  94 W12G21    29.68R FOG              
PORTLAND       MOCLDY    73  55  53 S13G22    29.62F                  
CLARKSVILLE    RAIN      62  59  90 W8        29.66S FOG              
LEBANON        CLEAR     75  54  46 S9G17     29.62F                  
SMYRNA         FAIR      74  57  55 S7        29.64F                  
MURFREESBORO   CLEAR     75  54  46 S15       29.63F                  
COOKEVILLE     MOCLDY    73  54  49 S13       29.67F                  
LIVINGSTON     MOCLDY    72  52  49 S8G20     29.68F                  
GALLATIN       PTCLDY    75  54  46 S13G21    29.65F                  
CROSSVILLE     MOCLDY    70  52  52 VRB6G18   29.74F                  
ROCKWOOD       PTCLDY    72  52  49 S9G17     29.74S                  
$$

TNZ061-075-076-078-094-096-097-190100-
SOUTH MIDDLE TENNESSEE
  
CITY           SKY/WX    TMP DP  RH WIND       PRES   REMARKS
LAWRENCEBURG   CLOUDY    66  61  82 W6        29.66R HAZE             
LEWISBURG      PTCLDY    73  57  56 S13       29.65S                  
FAYETTEVILLE   PTCLDY    72  55  56 S8        29.67S                  
TULLAHOMA      CLEAR     72  54  53 S10G20    29.68R                  
WINCHESTER     CLEAR     73  54  49 S13G20    29.68S                  
MCMINNVILLE    CLEAR     73  54  49 S6G17     29.68F                  
COLUMBIA       MOCLDY    68  66  94 W15G30    29.65R FOG              
SHELBYVILLE    PTCLDY    72  55  56 S9        29.67R                  
$$

TNZ017-018-042-046-047-190100-
NORTHEAST TENNESSEE
  
CITY           SKY/WX    TMP DP  RH WIND       PRES   REMARKS
TRI CITIES     MOCLDY    73  50  44 S7        29.79S                  
ELIZABETHTON   FAIR      73  50  43 S7G17     29.81R                  
GREENEVILLE    CLEAR     72  52  49 S8G23     29.79R                  
$$

TNZ012-013-036-069-073-074-190100-
CENTRAL EAST TENNESSEE
  
CITY           SKY/WX    TMP DP  RH WIND       PRES   REMARKS
KNOXVILLE      CLOUDY    77  50  38 S16G23    29.72R                  
OAK RIDGE      MOCLDY    77  52  41 S6        29.73S                  
DOWNTOWN KNOXV PTCLDY    77  52  41 VRB7      29.72S                  
GATLINBURG     CLEAR     77  50  38 S5        29.73R                  
MORRISTOWN     CLEAR     75  50  41 S9        29.74R                  
JACKSBORO      CLEAR     73  54  49 SW8       29.75S                  
$$

TNZ083-085-099-190100-
SOUTHEAST TENNESSEE
  
CITY           SKY/WX    TMP DP  RH WIND       PRES   REMARKS
CHATTANOOGA    CLOUDY    76  53  44 SE8       29.72F                  
DAYTON         PTCLDY    75  55  50 S7        29.71F                  
$$

SKY/WX REPORTED AS FAIR MEANS FEW OR NO CLOUDS BELOW
12 THOUSAND FEET.